TimePDT,TemperatureF,Dew PointF,Humidity,Sea Level PressureIn,VisibilityMPH,Wind Direction,Wind SpeedMPH,Gust SpeedMPH,PrecipitationIn,Events,Conditions,WindDirDegrees,DateUTC
12:58 AM,76.6,60.1,56,29.93,10.0,Variable,2.3,-,N/A,,Clear,0,2013-07-02 07:58:00
1:58 AM,64.2,59.2,84,29.94,10.0,Variable,1.2,-,N/A,,Clear,0,2013-07-02 08:58:00
2:58 AM,73.4,61.3,66,29.94,10.0,Calm,Calm,-,N/A,,Clear,0,2013-07-02 09:58:00
3:58 AM,68.2,61.2,78,29.94,10.0,WNW,6.9,-,N/A,,Clear,290,2013-07-02 10:58:00
4:58 AM,68.2,60.6,77,29.96,10.0,ENE,4.6,-,N/A,,Clear,70,2013-07-02 11:58:00
5:58 AM,68.9,61.5,77,29.96,10.0,NNE,4.6,-,N/A,,Clear,30,2013-07-02 12:58:00
6:56 AM,71.6,64.4,78,30.04,10.0,ENE,5.8,-,N/A,,Light Drizzle,70,2013-07-02 13:56:00
6:58 AM,71.6,64.4,78,29.99,10.0,ENE,6.9,-,N/A,,Light Drizzle,70,2013-07-02 13:58:00
7:05 AM,71.6,64.4,78,30.04,10.0,East,5.8,-,N/A,,Clear,80,2013-07-02 14:05:00
7:58 AM,74.5,64.9,72,30.00,10.0,SE,3.5,-,0.00,,Mostly Cloudy,130,2013-07-02 14:58:00
8:58 AM,76.1,66.6,72,30.01,10.0,ESE,4.6,-,N/A,,Scattered Clouds,120,2013-07-02 15:58:00
9:58 AM,81.0,68.0,65,30.01,10.0,Variable,3.5,-,N/A,,Clear,0,2013-07-02 16:58:00
10:58 AM,84.0,68.0,58,30.01,10.0,Variable,2.3,-,N/A,,Scattered Clouds,0,2013-07-02 17:58:00
11:58 AM,88.0,64.9,46,30.00,10.0,South,8.1,-,N/A,,Clear,170,2013-07-02 18:58:00
12:58 PM,91.4,62.6,38,29.99,10.0,SW,8.1,-,N/A,,Clear,230,2013-07-02 19:58:00
1:33 PM,93.2,62.6,36,30.04,10.0,SSW,9.2,-,N/A,Rain,Light Rain,210,2013-07-02 20:33:00
1:37 PM,93.2,62.6,36,30.04,10.0,SSW,6.9,-,N/A,,Clear,200,2013-07-02 20:37:00
1:58 PM,93.2,59.7,33,29.99,10.0,South,6.9,-,0.00,,Clear,180,2013-07-02 20:58:00
2:58 PM,94.8,58.8,30,29.96,10.0,SW,5.8,-,N/A,,Clear,220,2013-07-02 21:58:00
3:58 PM,95.7,58.8,29,29.95,10.0,South,6.9,-,N/A,,Clear,190,2013-07-02 22:58:00
4:58 PM,95.7,58.1,28,29.93,10.0,SW,9.2,-,N/A,,Clear,220,2013-07-02 23:58:00
5:11 PM,95.0,57.2,28,29.97,10.0,SSW,9.2,-,N/A,,Light Drizzle,210,2013-07-03 00:11:00
5:15 PM,95.0,55.4,26,29.97,10.0,SSW,10.4,-,N/A,,Clear,210,2013-07-03 00:15:00
5:58 PM,94.3,61.7,34,29.91,10.0,SW,9.2,-,0.00,,Clear,230,2013-07-03 00:58:00
6:58 PM,92.1,59.7,34,29.89,10.0,SSW,6.9,-,N/A,,Clear,210,2013-07-03 01:58:00
7:58 PM,86.9,59.4,39,29.89,10.0,SW,8.1,-,N/A,,Clear,220,2013-07-03 02:58:00
8:31 PM,82.4,57.2,42,29.94,10.0,SSW,6.9,-,N/A,,Light Drizzle,210,2013-07-03 03:31:00
8:37 PM,82.4,59.0,45,29.94,10.0,SSW,8.1,-,N/A,,Clear,210,2013-07-03 03:37:00
8:58 PM,81.0,57.9,45,29.89,10.0,SW,5.8,-,0.00,,Clear,220,2013-07-03 03:58:00
9:58 PM,79.3,57.9,48,29.89,10.0,SSW,8.1,-,N/A,,Clear,210,2013-07-03 04:58:00
10:58 PM,77.0,58.5,53,29.90,10.0,WSW,10.4,-,N/A,,Clear,240,2013-07-03 05:58:00
11:58 PM,73.0,59.0,61,29.89,10.0,WSW,6.9,-,N/A,,Clear,240,2013-07-03 06:58:00